Weather History for KOJA - January, 2014

Change the Weather History Date:

Saturday, January 4, 2014

  Actual Average (KJWG) Record (KJWG)
Temperature  
Mean Temperature 39 °F -  
Max Temperature 50 °F 42 °F 63 °F (1978)
Min Temperature 26 °F 22 °F -9 °F (1959)
Degree Days  
Heating Degree Days 26    
Moisture  
Dew Point 25 °F    
Average Humidity 61    
Maximum Humidity 81    
Minimum Humidity 39    
Precipitation  
Precipitation 0.00 in - - ()
Sea Level Pressure  
Sea Level Pressure 29.78 in    
Wind  
Wind Speed 18 mph (NW)    
Max Wind Speed 28 mph    
Max Gust Speed 37 mph    
Visibility 10 miles    
Events      
Averages and records for this station are not official NWS values.
T = Trace of Precipitation, MM = Missing Value Source: NWS Daily Summary

Daily Weather History Graph

Daily Weather History Graph

Search for Another Location

Airport or City:

Trip Planner

Search our weather history database for the weather conditions in past years. The results will help you decide how hot, cold, wet, or windy it might be!

Date:

Astronomy

Jan. 04, 2014 Rise Set
Actual Time 7:44 AM CST 5:35 PM CST
Civil Twilight 7:16 AM CST 6:03 PM CST
Nautical Twilight 6:44 AM CST 6:35 PM CST
Astronomical Twilight 6:13 AM CST 7:05 PM CST
Moon 9:59 AM CST (1/4) 9:47 PM CST (1/4)
Length of Visible Light 10h 46m
Length of Day
9h 50m
Waxing Crescent, 15% of the Moon is Illuminated
Jan 4
Waxing Crescent
Jan 7
First Quarter
Jan 15
Full
Jan 23
Last Quarter
Jan 30
New

Hourly Weather History & Observations

Time (CST) Temp. Windchill Dew Point Humidity Pressure Visibility Wind Dir Wind Speed Gust Speed Precip Events Conditions
12:15 AM 44.6 °F 35.7 °F 23.0 °F 43% 29.74 in 10.0 mi South 24.2 mph 34.5 mph N/A   Clear
12:35 AM 44.6 °F 35.7 °F 23.0 °F 43% 29.73 in 10.0 mi South 24.2 mph 36.8 mph N/A   Clear
12:55 AM 44.6 °F 35.1 °F 23.0 °F 43% 29.72 in 10.0 mi SSW 27.6 mph 34.5 mph N/A   Clear
1:15 AM 44.6 °F 35.7 °F 23.0 °F 43% 29.72 in 10.0 mi South 24.2 mph 34.5 mph N/A   Clear
1:35 AM 44.6 °F 35.5 °F 23.0 °F 43% 29.71 in 10.0 mi SSW 25.3 mph 31.1 mph N/A   Clear
1:55 AM 44.6 °F 35.9 °F 21.2 °F 39% 29.71 in 10.0 mi SSW 23.0 mph 34.5 mph N/A   Clear
2:15 AM 42.8 °F 34.0 °F 21.2 °F 42% 29.71 in 10.0 mi SSW 20.7 mph 27.6 mph N/A   Clear
2:35 AM 42.8 °F 33.8 °F 21.2 °F 42% 29.71 in 10.0 mi SSW 21.9 mph 32.2 mph N/A   Clear
2:55 AM 42.8 °F 34.5 °F 21.2 °F 42% 29.71 in 10.0 mi South 18.4 mph 29.9 mph N/A   Clear
3:15 AM 41.0 °F 32.2 °F 21.2 °F 45% 29.71 in 10.0 mi South 18.4 mph 25.3 mph N/A   Clear
3:35 AM 41.0 °F 32.2 °F 21.2 °F 45% 29.71 in 10.0 mi South 18.4 mph 25.3 mph N/A   Clear
3:55 AM 41.0 °F 31.6 °F 21.2 °F 45% 29.69 in 10.0 mi South 20.7 mph 27.6 mph N/A   Clear
4:15 AM 41.0 °F 31.9 °F 21.2 °F 45% 29.68 in 10.0 mi South 19.6 mph 29.9 mph N/A   Clear
4:35 AM 39.2 °F 30.5 °F 21.2 °F 49% 29.68 in 10.0 mi South 16.1 mph 27.6 mph N/A   Clear
4:55 AM 39.2 °F 30.2 °F 23.0 °F 52% 29.66 in 10.0 mi South 17.3 mph 25.3 mph N/A   Clear
5:15 AM 37.4 °F 28.5 °F 23.0 °F 56% 29.68 in 10.0 mi SSW 15.0 mph 23.0 mph N/A   Clear
5:35 AM 37.4 °F 29.8 °F 23.0 °F 56% 29.68 in 10.0 mi SSW 11.5 mph - N/A   Clear
5:55 AM 37.4 °F 28.2 °F 23.0 °F 56% 29.68 in 10.0 mi South 16.1 mph 19.6 mph N/A   Clear
6:15 AM 37.4 °F 29.8 °F 23.0 °F 56% 29.68 in 10.0 mi South 11.5 mph 17.3 mph N/A   Clear
6:35 AM 35.6 °F 28.6 °F 23.0 °F 60% 29.68 in 10.0 mi SSW 9.2 mph 17.3 mph N/A   Clear
6:55 AM 35.6 °F 27.1 °F 23.0 °F 60% 29.68 in 10.0 mi SSW 12.7 mph 23.0 mph N/A   Clear
7:15 AM 35.6 °F 28.0 °F 23.0 °F 60% 29.68 in 10.0 mi SSW 10.4 mph 18.4 mph N/A   Clear
7:35 AM 35.6 °F 27.5 °F 24.8 °F 65% 29.68 in 10.0 mi SSW 11.5 mph - N/A   Clear
7:55 AM 35.6 °F 27.5 °F 24.8 °F 65% 29.69 in 10.0 mi SSW 11.5 mph - N/A   Clear
8:15 AM 35.6 °F 27.5 °F 24.8 °F 65% 29.69 in 10.0 mi SSW 11.5 mph - N/A   Clear
8:35 AM 35.6 °F 28.6 °F 24.8 °F 65% 29.71 in 10.0 mi SSW 9.2 mph - N/A   Clear
8:55 AM 35.6 °F 29.9 °F 26.6 °F 70% 29.71 in 10.0 mi SSW 6.9 mph - N/A   Clear
9:15 AM 37.4 °F 32.1 °F 26.6 °F 65% 29.72 in 10.0 mi SW 6.9 mph - N/A   Clear
9:35 AM 39.2 °F 32.0 °F 26.6 °F 61% 29.71 in 10.0 mi SSW 11.5 mph - N/A   Clear
9:55 AM 41.0 °F 35.8 °F 28.4 °F 61% 29.73 in 10.0 mi SW 8.1 mph - N/A   Clear
10:15 AM 41.0 °F 35.2 °F 28.4 °F 61% 29.73 in 10.0 mi WSW 9.2 mph - N/A   Clear
10:35 AM 42.8 °F 38.6 °F 30.2 °F 61% 29.73 in 10.0 mi WSW 6.9 mph - N/A   Clear
10:55 AM 44.6 °F 41.4 °F 30.2 °F 57% 29.74 in 10.0 mi WNW 5.8 mph - N/A   Clear
11:15 AM 44.6 °F 40.2 °F 30.2 °F 57% 29.73 in 10.0 mi NW 8.1 mph - N/A   Clear
11:35 AM 44.6 °F 40.2 °F 30.2 °F 57% 29.73 in 10.0 mi NNW 8.1 mph - N/A   Clear
11:55 AM 46.4 °F 42.4 °F 32.0 °F 57% 29.73 in 10.0 mi NNW 8.1 mph - N/A   Clear
12:15 PM 46.4 °F 41.1 °F 32.0 °F 57% 29.73 in 10.0 mi NNW 11.5 mph - N/A   Clear
12:35 PM 48.2 °F - 32.0 °F 54% 29.72 in 10.0 mi NNW 13.8 mph 19.6 mph N/A   Clear
12:55 PM 50.0 °F - 32.0 °F 50% 29.72 in 10.0 mi North 16.1 mph 21.9 mph N/A   Clear
1:15 PM 48.2 °F - 30.2 °F 50% 29.73 in 10.0 mi North 16.1 mph 21.9 mph N/A   Clear
1:35 PM 48.2 °F - 30.2 °F 50% 29.73 in 10.0 mi North 20.7 mph 25.3 mph N/A   Clear
1:55 PM 46.4 °F 39.2 °F 30.2 °F 53% 29.73 in 10.0 mi North 18.4 mph 23.0 mph N/A   Clear
2:15 PM 46.4 °F 39.2 °F 30.2 °F 53% 29.74 in 10.0 mi North 18.4 mph 27.6 mph N/A   Clear
2:35 PM 46.4 °F 39.0 °F 28.4 °F 50% 29.75 in 10.0 mi North 19.6 mph 27.6 mph N/A   Clear
2:55 PM 46.4 °F 39.0 °F 30.2 °F 53% 29.75 in 10.0 mi North 19.6 mph 25.3 mph N/A   Clear
3:15 PM 46.4 °F 39.0 °F 30.2 °F 53% 29.76 in 10.0 mi North 19.6 mph - N/A   Clear
3:35 PM 46.4 °F 39.0 °F 30.2 °F 53% 29.77 in 10.0 mi North 19.6 mph 26.5 mph N/A   Clear
3:55 PM 44.6 °F 37.2 °F 30.2 °F 57% 29.78 in 10.0 mi North 17.3 mph 23.0 mph N/A   Clear
4:15 PM 44.6 °F 36.6 °F 28.4 °F 53% 29.80 in 10.0 mi NNE 19.6 mph 25.3 mph N/A   Clear
4:35 PM 41.0 °F 31.1 °F 30.2 °F 65% 29.80 in 10.0 mi North 23.0 mph 28.8 mph N/A   Clear
4:55 PM 37.4 °F 27.2 °F 30.2 °F 75% 29.82 in 10.0 mi North 19.6 mph 28.8 mph N/A   Clear
5:15 PM 35.6 °F 25.2 °F 28.4 °F 75% 29.84 in 10.0 mi North 18.4 mph 27.6 mph N/A   Clear
5:35 PM 33.8 °F 22.8 °F 28.4 °F 81% 29.85 in 10.0 mi North 18.4 mph 23.0 mph N/A   Clear
5:55 PM 33.8 °F 22.8 °F 28.4 °F 81% 29.86 in 10.0 mi North 18.4 mph 24.2 mph N/A   Mostly Cloudy
6:15 PM 33.8 °F 23.2 °F 28.4 °F 81% 29.87 in 10.0 mi North 17.3 mph 26.5 mph N/A   Overcast
6:35 PM 33.8 °F 23.9 °F 28.4 °F 81% 29.89 in 10.0 mi North 15.0 mph 26.5 mph N/A   Overcast
6:55 PM 32.0 °F 21.2 °F 26.6 °F 80% 29.90 in 10.0 mi North 16.1 mph 27.6 mph N/A   Mostly Cloudy
7:15 PM 32.0 °F 20.5 °F 26.6 °F 80% 29.90 in 10.0 mi North 18.4 mph - N/A   Mostly Cloudy
7:35 PM 32.0 °F 21.6 °F 26.6 °F 80% 29.90 in 10.0 mi North 15.0 mph 18.4 mph N/A   Scattered Clouds
7:55 PM 32.0 °F 22.5 °F 24.8 °F 75% 29.92 in 10.0 mi North 12.7 mph 23.0 mph N/A   Clear
8:15 PM 30.2 °F 18.1 °F 23.0 °F 75% 29.91 in 10.0 mi North 18.4 mph 26.5 mph N/A   Scattered Clouds
8:35 PM 28.4 °F 15.1 °F 23.0 °F 80% 29.93 in 10.0 mi North 20.7 mph 24.2 mph N/A   Mostly Cloudy
8:55 PM 28.4 °F 16.2 °F 21.2 °F 74% 29.92 in 10.0 mi North 17.3 mph 21.9 mph N/A   Overcast
9:15 PM 28.4 °F 15.8 °F 23.0 °F 80% 29.93 in 10.0 mi North 18.4 mph 26.5 mph N/A   Overcast
9:35 PM 28.4 °F 14.7 °F 21.2 °F 74% 29.93 in 10.0 mi North 21.9 mph 28.8 mph N/A   Mostly Cloudy
9:55 PM 28.4 °F 15.8 °F 21.2 °F 74% 29.93 in 10.0 mi North 18.4 mph 33.4 mph N/A   Mostly Cloudy
10:15 PM 28.4 °F 16.2 °F 21.2 °F 74% 29.95 in 10.0 mi North 17.3 mph 24.2 mph N/A   Mostly Cloudy
10:35 PM 28.4 °F 15.1 °F 21.2 °F 74% 29.95 in 10.0 mi North 20.7 mph 31.1 mph N/A   Overcast
10:55 PM 28.4 °F 13.8 °F 21.2 °F 74% 29.95 in 10.0 mi North 25.3 mph 29.9 mph N/A   Overcast
11:15 PM 28.4 °F 15.4 °F 21.2 °F 74% 29.96 in 10.0 mi North 19.6 mph 36.8 mph N/A   Mostly Cloudy
11:35 PM 28.4 °F 14.1 °F 19.4 °F 69% 29.95 in 10.0 mi North 24.2 mph 29.9 mph N/A   Overcast
11:55 PM 26.6 °F 11.4 °F 19.4 °F 74% 29.96 in 10.0 mi North 25.3 mph 32.2 mph N/A   Mostly Cloudy